Regional Weather Roundup
Issued by NWS

Home | Current Version | Previous Version | Graphics & Text | Print | Product List | Glossary On
Versions: 1 2 3 4 5 6 7 8 9 10 11 12 13 14 15 16 17 18 19 20 21 22 23 24 25 26 27 28 29 30 31 32 33 34 35 36 37 38 39 40 41 42 43 44 45 46 47 48 49 50
000
ASUS45 KTFX 221410
RWRMT
MONTANA REGIONAL WEATHER ROUNDUP
NATIONAL WEATHER SERVICE GREAT FALLS MT
800 AM MDT FRI SEP 22 2017

NOTE: "FAIR" INDICATES FEW OR NO CLOUDS BELOW 12000 FEET WITH NO
SIGNIFICANT WEATHER AND/OR OBSTRUCTIONS TO VISIBILITY.

MTZ001>007-043-221500-
WEST OF THE DIVIDE

CITY           SKY/WX    TMP DP  RH WIND       PRES   REMARKS
KALISPELL      MOCLDY    42  29  59 N12       30.01R
MISSOULA       LGT RAIN  41  39  93 NW3       29.98S
BUTTE          LGT SNOW  33  29  85 NW7       29.90R FOG     WCI  27
MULLAN PASS    CLOUDY    30  28  92 VRB3      29.95R
ANACONDA         N/A     34  28  80 N12G17    29.94R WCI  25
DEER LODGE       N/A     36  27  69 N9        29.98S WCI  29
EUREKA           N/A     34  32  93 CALM      30.04S
HAMILTON         N/A     39  34  81 NW16G22   29.94S WCI  30
LIBBY            N/A     34  34 100 CALM      30.04R
PLAINS           N/A     41  37  85 CALM      30.01
$$

MTZ008-052>055-221500-
SOUTHWEST MONTANA

CITY           SKY/WX    TMP DP  RH WIND       PRES   REMARKS
BOZEMAN        CLOUDY    38  35  89 W10       29.89S WCI  31
DILLON         LGT SNOW  34  32  92 NE14      29.86R WCI  25
W YELLOWSTONE  CLOUDY    32  32 100 MISG      29.84S
ENNIS          CLOUDY    36  32  87 N7        29.91R WCI  30
THREE FORKS      N/A     39  34  82 N6        29.91R
TWIN BRIDGES     N/A     35  30  82 N18       29.86  WCI  24
$$

MTZ009-010-012-014-046-048-049-054-221500-
EAST SLOPES AND CENTRAL MONTANA

CITY           SKY/WX    TMP DP  RH WIND       PRES   REMARKS
CUT BANK       CLOUDY    34  32  92 CALM      30.10R
GREAT FALLS    MIX PCPN  34  32  92 NE9       30.06S WCI  27
MALMSTROM AFB  CLOUDY    35  35  98 NE9       30.07S WCI  28
HELENA         FLURRIES  37  31  78 N12G22    30.00R WCI  29
BOWMANS CRNR   LGT SNOW  31  30  99 N14       30.02F WCI  20
CHOTEAU          N/A     34  32  93 N9        30.08F FOG     WCI  26
FAIRFIELD      LGT RAIN  34  31  88 N8        30.06S WCI  28
POWER          LGT RAIN  34  32  91 N13       30.05S WCI  25
RAYNESFORD     FLURRIES  34  34  99 CALM      30.04R
ULM            LGT SNOW  33  33 100 N3        30.06S
$$

MTZ011-013-016-021-045-047-050-051-221500-
NORTH CENTRAL MONTANA

CITY           SKY/WX    TMP DP  RH WIND       PRES   REMARKS
HAVRE          CLOUDY    38  34  85 NW6       30.08S
LEWISTOWN      CLOUDY    34  33  96 CALM      30.03R
N BAR RANCH    LGT SNOW  32  32 100 CALM      30.03F
CHINOOK          N/A     37  34  87 W6        30.08R
DENTON           N/A     36  35  96 N7        30.01F FOG     WCI  31
GEYSER         CLOUDY    34  33  96 NE8       30.04R WCI  28
GRASS RANGE    LGT SNOW  33  33 100 CALM      30.00F
JUDITH GAP     FOG       32  32  98 N18       29.98S VSB 3/8 WCI  21
WINIFRED       CLOUDY    35  35  97 E8        30.03F WCI  29
$$

MTZ017>020-022>027-061-062-221500-
NORTHEAST MONTANA

CITY           SKY/WX    TMP DP  RH WIND       PRES   REMARKS
GLASGOW        CLOUDY    42  37  82 NW10      30.03R
JORDAN           N/A     42  37  82 NW13      30.02S
SIDNEY         CLOUDY    47  38  71 N7        29.99R
WOLF POINT     CLOUDY    47  38  71 CALM      30.02R
MALTA          CLOUDY    41  39  93 CALM      30.07R
POPLAR           N/A     45  37  76 N3        30.02R
SCOBEY           N/A     42  31  65 NW8       29.99
$$

MTZ028>42-056>058-221500-
SOUTHCENTRAL AND SOUTHEAST MONTANA

CITY           SKY/WX    TMP DP  RH WIND       PRES   REMARKS
BAKER          CLOUDY    48  37  65 N14       29.92R
BILLINGS       CLOUDY    39  38  96 NE13      29.96S WCI  31
LIVINGSTON     LGT SNOW  33  31  92 E20       29.93R FOG     WCI  21
MILES CITY     CLOUDY    47  34  60 N10       29.99R
BIG TIMBER     FOG       32  32 100 NE3       30.01S VSB 1/4
EKALAKA          N/A     47  35  63 NW6       29.90R
HARLOWTON      SNOW      32  32  99 MISG      30.00R VSB 1/4
LAUREL           N/A     39  37  93 NE14G24   29.98R WCI  31
$$

REGIONAL REPORTS...DAKOTAS

CITY           SKY/WX    TMP DP  RH WIND       PRES   REMARKS
WILLISTON      CLOUDY    46  39  76 N12       29.98R
MINOT          PTSUNNY   48  40  73 N13       29.90F
DICKINSON      CLOUDY    49  38  65 N17       29.85R
BEACH          CLOUDY    45  39  81 N12       29.98R
CROSBY         CLOUDY    43  41  93 NW9       30.01R
TIOGA          CLOUDY    45  39  81 NE9       29.97S
WATFORD CITY   CLOUDY    46  37  71 N8        29.94S
BISMARCK       CLOUDY    55  43  63 NE16G25   29.80R
GRAND FORKS    CLOUDY    58  53  84 N15       29.81F
FARGO          CLOUDY    63  61  93 N10       29.75S
BUFFALO SD       N/A     51  37  58 N18       29.78S
RAPID CITY     CLOUDY    52  39  62 N20G28    29.79R
$$

REGIONAL REPORTS...WYOMING/IDAHO/WASHINGTON

CITY           SKY/WX    TMP DP  RH WIND       PRES   REMARKS
GILLETTE       CLOUDY    45  34  65 N18       29.89S
SHERIDAN       CLOUDY    42  39  89 NW13      29.96S
BUFFALO WY     CLOUDY    40  36  86 NW17G24   29.95R
CODY           LGT SNOW  32  32 100 NE7       29.94S FOG     WCI  26
IDAHO FALLS    LGT RAIN  40  39  97 SW13      29.86R
SALMON         LGT RAIN  41  38  89 S3        29.87R
BOISE          CLOUDY    43  39  86 W9        29.89S
SPOKANE        FOG       37  37 100 CALM      29.99S VSB 1/16
$$

REGIONAL REPORTS...ALBERTA

CITY           SKY/WX    TMP DP  RH WIND       PRES   REMARKS
EDMONTON       CLOUDY    37  37 100 CALM      30.14F
CALGARY        FLURRIES  34  32  93 N10       30.09F WCI  26
LETHBRIDGE     CLOUDY    37  36  93 W3        30.11R
MEDICINE HAT   CLOUDY    41  37  87 NW5       30.10R
$$

REGIONAL REPORTS...SASKATCHEWAN

CITY           SKY/WX    TMP DP  RH WIND       PRES   REMARKS
SWIFT CURRENT  CLOUDY    37  36  93 NW9       30.04S WCI  31
REGINA         CLOUDY    39  37  93 N6        30.02R
SASKATOON      CLOUDY    39  39 100 N6        30.07S
$$



USA.gov is the U.S. government's official web portal to all federal, state and local government web resources and services.